| time (UTC) | temp F | wind direction | speed MPH | gust MPH | rain 1hr in | rain 24hr in | rain mn in | humidity % | barometer mb |
| 20260509091606 | 94 | 33 | 6.0 | 13.0 | 0.00 | 0.00 | 0.00 | 51 | 1007.1 |
| 20260509091106 | 94 | 70 | 9.0 | 10.0 | 0.00 | 0.00 | 0.00 | 51 | 1007.1 |
| 20260509090606 | 95 | 68 | 5.0 | 10.0 | 0.00 | 0.00 | 0.00 | 50 | 1007.1 |
| 20260509090106 | 95 | 56 | 7.0 | 9.0 | 0.00 | 0.00 | 0.00 | 50 | 1007.1 |
| 20260509085606 | 95 | 64 | 5.0 | 8.0 | 0.00 | 0.00 | 0.00 | 50 | 1007.1 |
| 20260509085106 | 95 | 54 | 6.0 | 9.0 | 0.00 | 0.00 | 0.00 | 50 | 1006.8 |
| 20260509084606 | 95 | 53 | 6.0 | 10.0 | 0.00 | 0.00 | 0.00 | 51 | 1006.8 |
| 20260509084106 | 95 | 59 | 5.0 | 8.0 | 0.00 | 0.00 | 0.00 | 50 | 1006.8 |
| 20260509083606 | 95 | 36 | 7.0 | 10.0 | 0.00 | 0.00 | 0.00 | 50 | 1006.8 |
| 20260509083107 | 95 | 74 | 8.0 | 9.0 | 0.00 | 0.00 | 0.00 | 49 | 1006.4 |
| 20260509082606 | 96 | 69 | 7.0 | 9.0 | 0.00 | 0.00 | 0.00 | 49 | 1006.4 |
| 20260509082106 | 96 | 66 | 3.0 | 7.0 | 0.00 | 0.00 | 0.00 | 49 | 1006.4 |
| 20260509081607 | 96 | 62 | 3.0 | 7.0 | 0.00 | 0.00 | 0.00 | 48 | 1006.8 |
| 20260509081108 | 96 | 55 | 7.0 | 10.0 | 0.00 | 0.00 | 0.00 | 48 | 1006.8 |
| 20260509080606 | 96 | 48 | 5.0 | 8.0 | 0.00 | 0.00 | 0.00 | 48 | 1006.4 |
| 20260509080106 | 97 | 57 | 3.0 | 10.0 | 0.00 | 0.00 | 0.00 | 49 | 1006.4 |
| 20260509075606 | 97 | 60 | 4.0 | 6.0 | 0.00 | 0.00 | 0.00 | 48 | 1006.4 |
| 20260509075106 | 97 | 90 | 3.0 | 5.0 | 0.00 | 0.00 | 0.00 | 48 | 1006.4 |
| 20260509074606 | 99 | 72 | 5.0 | 6.0 | 0.00 | 0.00 | 0.00 | 47 | 1006.1 |
| 20260509074107 | 101 | 120 | 4.0 | 5.0 | 0.00 | 0.00 | 0.00 | 45 | 1006.1 |
| 20260509073607 | 101 | 67 | 3.0 | 6.0 | 0.00 | 0.00 | 0.00 | 45 | 1006.4 |
| 20260509073106 | 99 | 50 | 5.0 | 6.0 | 0.00 | 0.00 | 0.00 | 47 | 1006.4 |
| 20260509072606 | 97 | 55 | 1.0 | 6.0 | 0.00 | 0.00 | 0.00 | 49 | 1006.1 |
| 20260509072107 | 95 | 191 | 7.0 | 16.0 | 0.00 | 0.00 | 0.00 | 54 | 1006.4 |
| 20260509071607 | 96 | 120 | 10.0 | 11.0 | 0.00 | 0.00 | 0.00 | 51 | 1006.4 |
| 20260509071106 | 95 | 124 | 9.0 | 16.0 | 0.00 | 0.00 | 0.00 | 54 | 1006.4 |
| 20260509070607 | 96 | 110 | 5.0 | 13.0 | 0.00 | 0.00 | 0.00 | 54 | 1006.8 |
| 20260509070107 | 96 | 111 | 3.0 | 16.0 | 0.00 | 0.00 | 0.00 | 52 | 1006.8 |
| 20260509065610 | 96 | 87 | 5.0 | 13.0 | 0.00 | 0.00 | 0.00 | 52 | 1007.1 |
| 20260509065106 | 96 | 123 | 11.0 | 15.0 | 0.00 | 0.00 | 0.00 | 53 | 1006.8 |
| 20260509064606 | 97 | 159 | 9.0 | 13.0 | 0.00 | 0.00 | 0.00 | 51 | 1006.8 |
| 20260509064106 | 97 | 74 | 3.0 | 6.0 | 0.00 | 0.00 | 0.00 | 51 | 1007.1 |
| 20260509063606 | 97 | 87 | 11.0 | 14.0 | 0.00 | 0.00 | 0.00 | 50 | 1006.8 |
| 20260509063107 | 97 | 121 | 15.0 | 18.0 | 0.00 | 0.00 | 0.00 | 51 | 1007.1 |
| 20260509062606 | 96 | 142 | 6.0 | 14.0 | 0.00 | 0.00 | 0.00 | 53 | 1007.1 |
| 20260509062106 | 97 | 156 | 9.0 | 14.0 | 0.00 | 0.00 | 0.00 | 53 | 1007.5 |
| 20260509061606 | 97 | 107 | 7.0 | 16.0 | 0.00 | 0.00 | 0.00 | 52 | 1007.5 |
| 20260509061106 | 95 | 112 | 7.0 | 17.0 | 0.00 | 0.00 | 0.00 | 54 | 1007.1 |
| 20260509060607 | 96 | 170 | 11.0 | 17.0 | 0.00 | 0.00 | 0.00 | 53 | 1007.1 |
| 20260509060107 | 96 | 163 | 18.0 | 21.0 | 0.00 | 0.00 | 0.00 | 53 | 1007.5 |
| 20260509055606 | 96 | 125 | 10.0 | 16.0 | 0.00 | 0.00 | 0.00 | 54 | 1007.8 |
| 20260509055107 | 97 | 177 | 5.0 | 11.0 | 0.00 | 0.00 | 0.00 | 52 | 1007.5 |
| 20260509054607 | 96 | 108 | 8.0 | 15.0 | 0.00 | 0.00 | 0.00 | 51 | 1007.5 |
| 20260509054106 | 96 | 157 | 16.0 | 18.0 | 0.00 | 0.00 | 0.00 | 51 | 1007.8 |
| 20260509053606 | 95 | 69 | 11.0 | 18.0 | 0.00 | 0.00 | 0.00 | 53 | 1007.8 |
| 20260509053106 | 96 | 100 | 6.0 | 18.0 | 0.00 | 0.00 | 0.00 | 52 | 1007.8 |
| 20260509052606 | 95 | 241 | 11.0 | 14.0 | 0.00 | 0.00 | 0.00 | 53 | 1007.8 |
| 20260509052106 | 95 | 112 | 17.0 | 21.0 | 0.00 | 0.00 | 0.00 | 53 | 1008.1 |
| 20260509051607 | 95 | 142 | 9.0 | 17.0 | 0.00 | 0.00 | 0.00 | 54 | 1008.5 |
| 20260509051106 | 96 | 111 | 13.0 | 16.0 | 0.00 | 0.00 | 0.00 | 53 | 1008.1 |
| 20260509050606 | 95 | 120 | 11.0 | 18.0 | 0.00 | 0.00 | 0.00 | 54 | 1008.5 |
| 20260509050106 | 96 | 188 | 8.0 | 14.0 | 0.00 | 0.00 | 0.00 | 53 | 1008.5 |
| 20260509045606 | 95 | 213 | 3.0 | 16.0 | 0.00 | 0.00 | 0.00 | 52 | 1008.5 |
| 20260509045107 | 95 | 223 | 3.0 | 13.0 | 0.00 | 0.00 | 0.00 | 53 | 1008.8 |
| 20260509044606 | 94 | 145 | 7.0 | 15.0 | 0.00 | 0.00 | 0.00 | 54 | 1009.1 |
| 20260509044106 | 94 | 84 | 12.0 | 17.0 | 0.00 | 0.00 | 0.00 | 53 | 1009.1 |
| 20260509043607 | 95 | 123 | 9.0 | 14.0 | 0.00 | 0.00 | 0.00 | 53 | 1009.1 |
| 20260509043107 | 95 | 162 | 8.0 | 16.0 | 0.00 | 0.00 | 0.00 | 52 | 1009.1 |
| 20260509042607 | 96 | 121 | 9.0 | 20.0 | 0.00 | 0.00 | 0.00 | 51 | 1009.5 |
| 20260509042106 | 95 | 208 | 3.0 | 14.0 | 0.00 | 0.00 | 0.00 | 52 | 1009.5 |
| 20260509041606 | 95 | 144 | 10.0 | 14.0 | 0.00 | 0.00 | 0.00 | 53 | 1009.5 |
| 20260509041106 | 95 | 138 | 9.0 | 13.0 | 0.00 | 0.00 | 0.00 | 53 | 1009.5 |
| 20260509040519 | 94 | 176 | 9.0 | 15.0 | 0.00 | 0.00 | 0.00 | 54 | 1009.8 |
| 20260509040006 | 95 | 243 | 14.0 | 17.0 | 0.00 | 0.00 | 0.00 | 54 | 1009.8 |
| 20260509035506 | 95 | 138 | 10.0 | 20.0 | 0.00 | 0.00 | 0.00 | 52 | 1009.8 |
| 20260509035006 | 93 | 178 | 6.0 | 15.0 | 0.00 | 0.00 | 0.00 | 54 | 1009.8 |
| 20260509034506 | 94 | 145 | 8.0 | 15.0 | 0.00 | 0.00 | 0.00 | 55 | 1009.8 |
| 20260509034007 | 94 | 138 | 9.0 | 14.0 | 0.00 | 0.00 | 0.00 | 55 | 1010.2 |
| 20260509033506 | 94 | 151 | 7.0 | 11.0 | 0.00 | 0.00 | 0.00 | 55 | 1009.8 |
| 20260509033006 | 94 | 147 | 6.0 | 15.0 | 0.00 | 0.00 | 0.00 | 56 | 1010.2 |
| 20260509032506 | 95 | 139 | 12.0 | 16.0 | 0.00 | 0.00 | 0.00 | 54 | 1010.2 |
| 20260509032006 | 95 | 160 | 7.0 | 16.0 | 0.00 | 0.00 | 0.00 | 54 | 1010.2 |
| 20260509031507 | 94 | 104 | 8.0 | 15.0 | 0.00 | 0.00 | 0.00 | 55 | 1010.2 |
| 20260509031006 | 95 | 93 | 3.0 | 11.0 | 0.00 | 0.00 | 0.00 | 54 | 1010.2 |
| 20260509030506 | 94 | 139 | 6.0 | 7.0 | 0.00 | 0.00 | 0.00 | 56 | 1010.2 |
| 20260509030008 | 94 | 180 | 6.0 | 11.0 | 0.00 | 0.00 | 0.00 | 55 | 1010.5 |
| 20260509025507 | 92 | 106 | 9.0 | 15.0 | 0.00 | 0.00 | 0.00 | 60 | 1010.5 |
| 20260509025006 | 93 | 119 | 14.0 | 15.0 | 0.00 | 0.00 | 0.00 | 58 | 1010.5 |
| 20260509024506 | 93 | 128 | 13.0 | 16.0 | 0.00 | 0.00 | 0.00 | 57 | 1010.5 |
| 20260509024007 | 96 | 140 | 8.0 | 14.0 | 0.00 | 0.00 | 0.00 | 54 | 1010.5 |
| 20260509023506 | 95 | 139 | 2.0 | 6.0 | 0.00 | 0.00 | 0.00 | 50 | 1010.8 |
| 20260509023006 | 94 | 321 | 6.0 | 11.0 | 0.00 | 0.00 | 0.00 | 56 | 1010.5 |
| 20260509022506 | 97 | 148 | 6.0 | 9.0 | 0.00 | 0.00 | 0.00 | 52 | 1010.5 |
| 20260509022006 | 96 | 26 | 4.0 | 5.0 | 0.00 | 0.00 | 0.00 | 47 | 1010.8 |
| 20260509021506 | 96 | 154 | 3.0 | 7.0 | 0.00 | 0.00 | 0.00 | 47 | 1010.8 |
| 20260509021006 | 95 | 64 | 1.0 | 6.0 | 0.00 | 0.00 | 0.00 | 50 | 1010.8 |
| 20260509020508 | 96 | 110 | 6.0 | 8.0 | 0.00 | 0.00 | 0.00 | 49 | 1011.2 |
| 20260509020006 | 96 | 48 | 7.0 | 10.0 | 0.00 | 0.00 | 0.00 | 48 | 1011.2 |
| 20260509015506 | 97 | 72 | 3.0 | 5.0 | 0.00 | 0.00 | 0.00 | 48 | 1011.2 |
| 20260509015010 | 97 | 299 | 4.0 | 6.0 | 0.00 | 0.00 | 0.00 | 47 | 1011.2 |
| 20260509014507 | 97 | 61 | 3.0 | 8.0 | 0.00 | 0.00 | 0.00 | 48 | 1011.2 |
| 20260509014006 | 96 | 182 | 1.0 | 2.0 | 0.00 | 0.00 | 0.00 | 50 | 1011.2 |
| 20260509013507 | 96 | 81 | 3.0 | 8.0 | 0.00 | 0.00 | 0.00 | 48 | 1011.2 |
| 20260509013006 | 95 | 66 | 1.0 | 6.0 | 0.00 | 0.00 | 0.00 | 50 | 1010.8 |
| 20260509012506 | 96 | 64 | 6.0 | 9.0 | 0.00 | 0.00 | 0.00 | 49 | 1011.2 |
| 20260509012007 | 96 | 126 | 4.0 | 6.0 | 0.00 | 0.00 | 0.00 | 49 | 1011.2 |
| 20260509011506 | 96 | 77 | 6.0 | 8.0 | 0.00 | 0.00 | 0.00 | 49 | 1011.2 |
| 20260509011006 | 96 | 319 | 2.0 | 7.0 | 0.00 | 0.00 | 0.00 | 51 | 1011.5 |
| 20260509010506 | 96 | 66 | 2.0 | 6.0 | 0.00 | 0.00 | 0.00 | 49 | 1011.2 |
| 20260509010006 | 95 | 10 | 0.0 | 5.0 | 0.00 | 0.00 | 0.00 | 51 | 1011.2 |
| 20260509005506 | 93 | 69 | 0.0 | 5.0 | 0.00 | 0.00 | 0.00 | 54 | 1011.5 |
| 20260509005006 | 92 | 48 | 1.0 | 5.0 | 0.00 | 0.00 | 0.00 | 54 | 1011.5 |
| 20260509004507 | 94 | 46 | 6.0 | 10.0 | 0.00 | 0.00 | 0.00 | 53 | 1011.2 |
| 20260509004006 | 93 | 78 | 7.0 | 9.0 | 0.00 | 0.00 | 0.00 | 53 | 1011.5 |
| 20260509003506 | 93 | 72 | 3.0 | 8.0 | 0.00 | 0.00 | 0.00 | 54 | 1011.5 |
| 20260509003008 | 93 | 56 | 1.0 | 6.0 | 0.00 | 0.00 | 0.00 | 54 | 1011.5 |
| 20260509002506 | 92 | 51 | 1.0 | 8.0 | 0.00 | 0.00 | 0.00 | 55 | 1011.2 |
| 20260509002007 | 93 | 45 | 6.0 | 8.0 | 0.00 | 0.00 | 0.00 | 53 | 1011.5 |
| 20260509001507 | 93 | 70 | 3.0 | 5.0 | 0.00 | 0.00 | 0.00 | 54 | 1011.5 |
| 20260509001006 | 93 | 84 | 1.0 | 7.0 | 0.00 | 0.00 | 0.00 | 56 | 1011.2 |
| 20260509000507 | 92 | 69 | 3.0 | 5.0 | 0.00 | 0.00 | 0.00 | 56 | 1011.5 |
| 20260509000006 | 92 | 24 | 1.0 | 3.0 | 0.00 | 0.00 | 0.00 | 57 | 1011.2 |
| 20260508235509 | 92 | 304 | 3.0 | 3.0 | 0.00 | 0.00 | 0.00 | 56 | 1011.2 |
| 20260508235007 | 92 | 272 | 0.0 | 2.0 | 0.00 | 0.00 | 0.00 | 57 | 1011.2 |
| 20260508234506 | 91 | 60 | 1.0 | 2.0 | 0.00 | 0.00 | 0.00 | 57 | 1011.2 |
| 20260508234006 | 90 | 60 | 3.0 | 3.0 | 0.00 | 0.00 | 0.00 | 58 | 1011.2 |
| 20260508233506 | 90 | 338 | 2.0 | 3.0 | 0.00 | 0.00 | 0.00 | 59 | 1010.8 |
| 20260508233006 | 89 | 56 | 1.0 | 2.0 | 0.00 | 0.00 | 0.00 | 60 | 1011.2 |
| 20260508232506 | 89 | 299 | 3.0 | 3.0 | 0.00 | 0.00 | 0.00 | 59 | 1010.8 |
| 20260508232006 | 90 | 302 | 2.0 | 3.0 | 0.00 | 0.00 | 0.00 | 59 | 1010.8 |
| 20260508231506 | 88 | 304 | 0.0 | 1.0 | 0.00 | 0.00 | 0.00 | 63 | 1011.2 |
| 20260508231006 | 88 | 306 | 3.0 | 3.0 | 0.00 | 0.00 | 0.00 | 62 | 1010.5 |
| 20260508230506 | 87 | 281 | 1.0 | 3.0 | 0.00 | 0.00 | 0.00 | 65 | 1010.8 |
| 20260508230006 | 86 | 279 | 1.0 | 2.0 | 0.00 | 0.00 | 0.00 | 65 | 1010.8 |
| 20260508225506 | 86 | 267 | 2.0 | 2.0 | 0.00 | 0.00 | 0.00 | 65 | 1010.5 |
| 20260508225006 | 86 | 282 | 1.0 | 1.0 | 0.00 | 0.00 | 0.00 | 66 | 1010.8 |
| 20260508224506 | 87 | 293 | 1.0 | 2.0 | 0.00 | 0.00 | 0.00 | 66 | 1010.8 |
| 20260508224006 | 86 | 289 | 1.0 | 1.0 | 0.00 | 0.00 | 0.00 | 66 | 1010.2 |
| 20260508223506 | 86 | 290 | 0.0 | 2.0 | 0.00 | 0.00 | 0.00 | 66 | 1010.5 |
| 20260508223006 | 86 | 292 | 0.0 | 2.0 | 0.00 | 0.00 | 0.00 | 66 | 1010.2 |
| 20260508222506 | 87 | 313 | 1.0 | 1.0 | 0.00 | 0.00 | 0.00 | 64 | 1009.8 |
| 20260508222007 | 87 | 313 | 0.0 | 1.0 | 0.00 | 0.00 | 0.00 | 64 | 1010.2 |
| 20260508221507 | 87 | 54 | 0.0 | 1.0 | 0.00 | 0.00 | 0.00 | 64 | 1009.8 |
| 20260508221006 | 87 | 45 | 0.0 | 1.0 | 0.00 | 0.00 | 0.00 | 64 | 1010.2 |
| 20260508220506 | 86 | 41 | 0.0 | 0.0 | 0.00 | 0.00 | 0.00 | 65 | 1010.2 |
| 20260508220007 | 85 | 33 | 0.0 | 1.0 | 0.00 | 0.00 | 0.00 | 67 | 1009.8 |
| 20260508215506 | 84 | 32 | 0.0 | 1.0 | 0.00 | 0.00 | 0.00 | 68 | 1009.8 |
| 20260508215006 | 84 | 32 | 0.0 | 1.0 | 0.00 | 0.00 | 0.00 | 69 | 1009.8 |
| 20260508214507 | 83 | 304 | 0.0 | 1.0 | 0.00 | 0.00 | 0.00 | 70 | 1009.5 |
| 20260508214007 | 83 | 303 | 0.0 | 1.0 | 0.00 | 0.00 | 0.00 | 70 | 1009.5 |
| 20260508213506 | 84 | 303 | 0.0 | 1.0 | 0.00 | 0.00 | 0.00 | 69 | 1009.5 |
| 20260508213007 | 84 | 303 | 1.0 | 2.0 | 0.00 | 0.00 | 0.00 | 70 | 1009.5 |
| 20260508212506 | 84 | 60 | 0.0 | 2.0 | 0.00 | 0.00 | 0.00 | 69 | 1009.5 |
| 20260508212006 | 84 | 52 | 3.0 | 3.0 | 0.00 | 0.00 | 0.00 | 69 | 1009.5 |
| 20260508211506 | 84 | 64 | 1.0 | 2.0 | 0.00 | 0.00 | 0.00 | 69 | 1009.5 |
| 20260508211007 | 84 | 52 | 3.0 | 3.0 | 0.00 | 0.00 | 0.00 | 69 | 1009.5 |
| 20260508210508 | 84 | 58 | 1.0 | 2.0 | 0.00 | 0.00 | 0.00 | 68 | 1009.5 |
| 20260508210006 | 84 | 64 | 1.0 | 5.0 | 0.00 | 0.00 | 0.00 | 68 | 1009.5 |
| 20260508205506 | 84 | 58 | 3.0 | 6.0 | 0.00 | 0.00 | 0.00 | 69 | 1009.5 |
| 20260508205006 | 84 | 61 | 2.0 | 3.0 | 0.00 | 0.00 | 0.00 | 69 | 1009.1 |
| 20260508204506 | 84 | 53 | 3.0 | 5.0 | 0.00 | 0.00 | 0.00 | 69 | 1009.5 |
| 20260508204006 | 84 | 54 | 2.0 | 2.0 | 0.00 | 0.00 | 0.00 | 69 | 1009.1 |
| 20260508203506 | 84 | 65 | 2.0 | 3.0 | 0.00 | 0.00 | 0.00 | 69 | 1009.5 |
| 20260508203006 | 84 | 73 | 3.0 | 5.0 | 0.00 | 0.00 | 0.00 | 69 | 1009.1 |
| 20260508202506 | 84 | 51 | 2.0 | 2.0 | 0.00 | 0.00 | 0.00 | 68 | 1009.5 |
| 20260508202009 | 84 | 56 | 2.0 | 3.0 | 0.00 | 0.00 | 0.00 | 68 | 1009.5 |
| 20260508201506 | 84 | 59 | 2.0 | 2.0 | 0.00 | 0.00 | 0.00 | 68 | 1009.5 |
| 20260508201006 | 84 | 70 | 3.0 | 5.0 | 0.00 | 0.00 | 0.00 | 68 | 1009.1 |
| 20260508200506 | 84 | 68 | 1.0 | 3.0 | 0.00 | 0.00 | 0.00 | 68 | 1009.1 |
| 20260508200007 | 84 | 68 | 2.0 | 3.0 | 0.00 | 0.00 | 0.00 | 68 | 1009.1 |
| 20260508195507 | 84 | 68 | 2.0 | 2.0 | 0.00 | 0.00 | 0.00 | 69 | 1009.1 |
| 20260508195006 | 84 | 59 | 3.0 | 3.0 | 0.00 | 0.00 | 0.00 | 68 | 1009.1 |
| 20260508194507 | 84 | 83 | 3.0 | 3.0 | 0.00 | 0.00 | 0.00 | 68 | 1009.1 |
| 20260508194007 | 85 | 63 | 3.0 | 3.0 | 0.00 | 0.00 | 0.00 | 68 | 1009.1 |
| 20260508193507 | 85 | 50 | 0.0 | 2.0 | 0.00 | 0.00 | 0.00 | 68 | 1009.5 |
| 20260508193007 | 85 | 63 | 2.0 | 3.0 | 0.00 | 0.00 | 0.00 | 68 | 1009.1 |
| 20260508192506 | 85 | 56 | 3.0 | 3.0 | 0.00 | 0.00 | 0.00 | 68 | 1009.1 |
| 20260508192006 | 85 | 63 | 2.0 | 2.0 | 0.00 | 0.00 | 0.00 | 68 | 1009.1 |
| 20260508191506 | 85 | 90 | 1.0 | 2.0 | 0.00 | 0.00 | 0.00 | 67 | 1009.1 |
| 20260508191007 | 85 | 64 | 2.0 | 3.0 | 0.00 | 0.00 | 0.00 | 67 | 1009.1 |
| 20260508190506 | 85 | 75 | 1.0 | 2.0 | 0.00 | 0.00 | 0.00 | 68 | 1009.5 |
| 20260508190007 | 85 | 85 | 1.0 | 2.0 | 0.00 | 0.00 | 0.00 | 67 | 1009.5 |
| 20260508185507 | 85 | 83 | 1.0 | 2.0 | 0.00 | 0.00 | 0.00 | 67 | 1009.1 |
| 20260508185007 | 85 | 115 | 1.0 | 3.0 | 0.00 | 0.00 | 0.00 | 67 | 1009.1 |
| 20260508184506 | 85 | 114 | 2.0 | 5.0 | 0.00 | 0.00 | 0.00 | 67 | 1009.1 |
| 20260508184006 | 85 | 76 | 3.0 | 5.0 | 0.00 | 0.00 | 0.00 | 66 | 1009.1 |
| 20260508183507 | 85 | 72 | 3.0 | 5.0 | 0.00 | 0.00 | 0.00 | 66 | 1009.5 |
| 20260508183007 | 85 | 76 | 3.0 | 5.0 | 0.00 | 0.00 | 0.00 | 66 | 1009.1 |
| 20260508182507 | 85 | 116 | 2.0 | 3.0 | 0.00 | 0.00 | 0.00 | 66 | 1009.1 |
| 20260508182007 | 86 | 65 | 1.0 | 5.0 | 0.00 | 0.00 | 0.00 | 66 | 1009.5 |
| 20260508181506 | 86 | 57 | 5.0 | 7.0 | 0.00 | 0.00 | 0.00 | 65 | 1009.5 |
| 20260508181007 | 86 | 82 | 3.0 | 3.0 | 0.00 | 0.00 | 0.00 | 65 | 1009.5 |
| 20260508180506 | 86 | 94 | 5.0 | 6.0 | 0.00 | 0.00 | 0.00 | 65 | 1009.5 |
| 20260508180006 | 86 | 86 | 2.0 | 5.0 | 0.00 | 0.00 | 0.00 | 65 | 1009.5 |
| 20260508175506 | 86 | 76 | 4.0 | 8.0 | 0.00 | 0.00 | 0.00 | 65 | 1009.5 |
| 20260508175006 | 86 | 60 | 5.0 | 7.0 | 0.00 | 0.00 | 0.00 | 65 | 1009.5 |
| 20260508174506 | 86 | 102 | 2.0 | 6.0 | 0.00 | 0.00 | 0.00 | 65 | 1009.5 |
| 20260508174006 | 86 | 93 | 3.0 | 5.0 | 0.00 | 0.00 | 0.00 | 65 | 1009.5 |
| 20260508173506 | 86 | 70 | 3.0 | 6.0 | 0.00 | 0.00 | 0.00 | 65 | 1009.8 |
| 20260508173008 | 86 | 61 | 4.0 | 7.0 | 0.00 | 0.00 | 0.00 | 65 | 1009.5 |
| 20260508172506 | 86 | 70 | 4.0 | 5.0 | 0.00 | 0.00 | 0.00 | 65 | 1009.5 |
| 20260508172006 | 86 | 86 | 2.0 | 5.0 | 0.00 | 0.00 | 0.00 | 65 | 1009.8 |
| 20260508171506 | 86 | 70 | 5.0 | 7.0 | 0.00 | 0.00 | 0.00 | 65 | 1009.5 |
| 20260508171007 | 86 | 99 | 2.0 | 3.0 | 0.00 | 0.00 | 0.00 | 65 | 1009.8 |
| 20260508170507 | 86 | 74 | 3.0 | 5.0 | 0.00 | 0.00 | 0.00 | 65 | 1009.8 |
| 20260508170006 | 86 | 73 | 3.0 | 5.0 | 0.00 | 0.00 | 0.00 | 65 | 1009.8 |
| 20260508165508 | 86 | 83 | 2.0 | 5.0 | 0.00 | 0.00 | 0.00 | 65 | 1010.2 |
| 20260508165006 | 86 | 124 | 3.0 | 7.0 | 0.00 | 0.00 | 0.00 | 65 | 1009.8 |
| 20260508164507 | 86 | 94 | 3.0 | 8.0 | 0.00 | 0.00 | 0.00 | 65 | 1010.2 |
| 20260508164007 | 86 | 78 | 3.0 | 3.0 | 0.00 | 0.00 | 0.00 | 66 | 1010.2 |
| 20260508163507 | 86 | 113 | 2.0 | 6.0 | 0.00 | 0.00 | 0.00 | 66 | 1009.8 |
| 20260508163006 | 86 | 129 | 3.0 | 8.0 | 0.00 | 0.00 | 0.00 | 66 | 1010.2 |
| 20260508162507 | 86 | 72 | 5.0 | 6.0 | 0.00 | 0.00 | 0.00 | 65 | 1010.2 |
| 20260508162006 | 86 | 89 | 4.0 | 7.0 | 0.00 | 0.00 | 0.00 | 65 | 1010.5 |
| 20260508161506 | 86 | 89 | 2.0 | 6.0 | 0.00 | 0.00 | 0.00 | 65 | 1010.2 |
| 20260508161006 | 86 | 100 | 6.0 | 7.0 | 0.00 | 0.00 | 0.00 | 65 | 1010.2 |
| 20260508160507 | 86 | 94 | 1.0 | 5.0 | 0.00 | 0.00 | 0.00 | 65 | 1010.2 |
| 20260508160007 | 86 | 78 | 4.0 | 5.0 | 0.00 | 0.00 | 0.00 | 64 | 1010.2 |
| 20260508155506 | 86 | 78 | 2.0 | 6.0 | 0.00 | 0.00 | 0.00 | 64 | 1010.5 |
| 20260508155006 | 86 | 77 | 4.0 | 6.0 | 0.00 | 0.00 | 0.00 | 64 | 1010.2 |
| 20260508154506 | 86 | 83 | 5.0 | 7.0 | 0.00 | 0.00 | 0.00 | 64 | 1010.2 |
| 20260508154007 | 86 | 96 | 2.0 | 6.0 | 0.00 | 0.00 | 0.00 | 64 | 1010.5 |
| 20260508153507 | 86 | 97 | 2.0 | 3.0 | 0.00 | 0.00 | 0.00 | 64 | 1010.5 |
| 20260508153007 | 86 | 109 | 3.0 | 5.0 | 0.00 | 0.00 | 0.00 | 64 | 1010.5 |
| 20260508152507 | 86 | 87 | 2.0 | 5.0 | 0.00 | 0.00 | 0.00 | 64 | 1010.5 |
| 20260508152006 | 86 | 103 | 3.0 | 5.0 | 0.00 | 0.00 | 0.00 | 64 | 1010.5 |
| 20260508151506 | 86 | 97 | 2.0 | 5.0 | 0.00 | 0.00 | 0.00 | 63 | 1010.5 |
| 20260508151007 | 86 | 88 | 4.0 | 7.0 | 0.00 | 0.00 | 0.00 | 63 | 1010.5 |
| 20260508150506 | 87 | 93 | 6.0 | 8.0 | 0.00 | 0.00 | 0.00 | 63 | 1010.8 |
| 20260508150007 | 87 | 80 | 5.0 | 7.0 | 0.00 | 0.00 | 0.00 | 63 | 1010.5 |
| 20260508145506 | 87 | 109 | 4.0 | 7.0 | 0.00 | 0.00 | 0.00 | 62 | 1010.8 |
| 20260508145007 | 87 | 97 | 6.0 | 9.0 | 0.00 | 0.00 | 0.00 | 62 | 1010.5 |
| 20260508144507 | 87 | 69 | 6.0 | 9.0 | 0.00 | 0.00 | 0.00 | 62 | 1010.5 |
| 20260508144006 | 87 | 86 | 6.0 | 11.0 | 0.00 | 0.00 | 0.00 | 62 | 1010.8 |
| 20260508143507 | 87 | 95 | 7.0 | 11.0 | 0.00 | 0.00 | 0.00 | 62 | 1010.8 |
| 20260508143006 | 87 | 57 | 4.0 | 8.0 | 0.00 | 0.00 | 0.00 | 62 | 1010.8 |
| 20260508142506 | 87 | 65 | 6.0 | 8.0 | 0.00 | 0.00 | 0.00 | 62 | 1010.8 |
| 20260508142007 | 87 | 75 | 5.0 | 9.0 | 0.00 | 0.00 | 0.00 | 62 | 1010.8 |
| 20260508141507 | 87 | 53 | 5.0 | 8.0 | 0.00 | 0.00 | 0.00 | 62 | 1010.8 |
| 20260508141006 | 87 | 46 | 6.0 | 8.0 | 0.00 | 0.00 | 0.00 | 62 | 1011.2 |
| 20260508140418 | 87 | 91 | 3.0 | 6.0 | 0.00 | 0.00 | 0.00 | 62 | 1010.8 |
| 20260508135907 | 87 | 67 | 3.0 | 5.0 | 0.00 | 0.00 | 0.00 | 62 | 1010.8 |
| 20260508135406 | 87 | 60 | 6.0 | 9.0 | 0.00 | 0.00 | 0.00 | 62 | 1010.5 |
| 20260508134906 | 87 | 97 | 1.0 | 3.0 | 0.00 | 0.00 | 0.00 | 62 | 1010.5 |
| 20260508134408 | 87 | 70 | 3.0 | 6.0 | 0.00 | 0.00 | 0.00 | 61 | 1010.8 |
| 20260508133908 | 87 | 67 | 3.0 | 6.0 | 0.00 | 0.00 | 0.00 | 61 | 1010.5 |
| 20260508133406 | 87 | 62 | 3.0 | 3.0 | 0.00 | 0.00 | 0.00 | 61 | 1010.5 |
| 20260508132907 | 87 | 58 | 2.0 | 8.0 | 0.00 | 0.00 | 0.00 | 60 | 1010.8 |
| 20260508132406 | 87 | 74 | 4.0 | 8.0 | 0.00 | 0.00 | 0.00 | 60 | 1010.5 |
| 20260508131908 | 87 | 70 | 3.0 | 7.0 | 0.00 | 0.00 | 0.00 | 60 | 1010.5 |
| 20260508131406 | 87 | 78 | 2.0 | 7.0 | 0.00 | 0.00 | 0.00 | 61 | 1010.5 |
| 20260508130906 | 87 | 86 | 1.0 | 3.0 | 0.00 | 0.00 | 0.00 | 61 | 1010.5 |
| 20260508130406 | 88 | 56 | 2.0 | 3.0 | 0.00 | 0.00 | 0.00 | 61 | 1010.2 |
| 20260508125906 | 88 | 69 | 5.0 | 7.0 | 0.00 | 0.00 | 0.00 | 60 | 1010.2 |
| 20260508125406 | 88 | 39 | 4.0 | 7.0 | 0.00 | 0.00 | 0.00 | 60 | 1010.2 |
| 20260508124906 | 88 | 60 | 2.0 | 5.0 | 0.00 | 0.00 | 0.00 | 60 | 1010.2 |
| 20260508124406 | 88 | 77 | 3.0 | 5.0 | 0.00 | 0.00 | 0.00 | 60 | 1010.2 |
| 20260508123907 | 88 | 55 | 3.0 | 5.0 | 0.00 | 0.00 | 0.00 | 60 | 1009.8 |
| 20260508123407 | 88 | 68 | 4.0 | 6.0 | 0.00 | 0.00 | 0.00 | 60 | 1009.8 |
| 20260508122907 | 88 | 34 | 3.0 | 6.0 | 0.00 | 0.00 | 0.00 | 60 | 1009.5 |
| 20260508122407 | 88 | 45 | 1.0 | 3.0 | 0.00 | 0.00 | 0.00 | 60 | 1009.8 |
| 20260508121908 | 88 | 62 | 3.0 | 5.0 | 0.00 | 0.00 | 0.00 | 59 | 1009.8 |
| 20260508121406 | 88 | 65 | 4.0 | 7.0 | 0.00 | 0.00 | 0.00 | 59 | 1009.5 |
| 20260508120907 | 89 | 61 | 3.0 | 6.0 | 0.00 | 0.00 | 0.00 | 59 | 1009.8 |
| 20260508120407 | 89 | 71 | 5.0 | 6.0 | 0.00 | 0.00 | 0.00 | 59 | 1009.5 |
| 20260508115907 | 89 | 56 | 4.0 | 8.0 | 0.00 | 0.00 | 0.00 | 58 | 1009.5 |
| 20260508115408 | 89 | 60 | 2.0 | 3.0 | 0.00 | 0.00 | 0.00 | 58 | 1009.5 |
| 20260508114906 | 89 | 42 | 4.0 | 9.0 | 0.00 | 0.00 | 0.00 | 58 | 1009.5 |
| 20260508114406 | 89 | 58 | 2.0 | 5.0 | 0.00 | 0.00 | 0.00 | 58 | 1009.1 |
| 20260508113906 | 89 | 75 | 3.0 | 3.0 | 0.00 | 0.00 | 0.00 | 58 | 1009.5 |
| 20260508113406 | 89 | 89 | 3.0 | 5.0 | 0.00 | 0.00 | 0.00 | 58 | 1009.1 |
| 20260508112906 | 89 | 62 | 2.0 | 3.0 | 0.00 | 0.00 | 0.00 | 58 | 1008.8 |
| 20260508112406 | 89 | 71 | 2.0 | 3.0 | 0.00 | 0.00 | 0.00 | 57 | 1008.8 |
| 20260508111906 | 89 | 80 | 2.0 | 3.0 | 0.00 | 0.00 | 0.00 | 57 | 1009.1 |
| 20260508111406 | 90 | 121 | 1.0 | 2.0 | 0.00 | 0.00 | 0.00 | 57 | 1008.5 |
| 20260508110906 | 90 | 42 | 3.0 | 7.0 | 0.00 | 0.00 | 0.00 | 56 | 1008.8 |
| 20260508110406 | 90 | 23 | 2.0 | 8.0 | 0.00 | 0.00 | 0.00 | 56 | 1008.5 |
| 20260508105906 | 90 | 69 | 5.0 | 8.0 | 0.00 | 0.00 | 0.00 | 56 | 1008.5 |
| 20260508105406 | 90 | 83 | 2.0 | 7.0 | 0.00 | 0.00 | 0.00 | 56 | 1008.5 |
| 20260508104906 | 91 | 64 | 7.0 | 8.0 | 0.00 | 0.00 | 0.00 | 55 | 1008.5 |
| 20260508104408 | 91 | 47 | 4.0 | 7.0 | 0.00 | 0.00 | 0.00 | 55 | 1008.5 |
| 20260508103907 | 91 | 49 | 7.0 | 9.0 | 0.00 | 0.00 | 0.00 | 55 | 1008.5 |
| 20260508103406 | 91 | 35 | 5.0 | 8.0 | 0.00 | 0.00 | 0.00 | 54 | 1008.1 |
| 20260508102906 | 91 | 71 | 7.0 | 10.0 | 0.00 | 0.00 | 0.00 | 54 | 1008.1 |
| 20260508102406 | 91 | 68 | 5.0 | 10.0 | 0.00 | 0.00 | 0.00 | 53 | 1008.1 |
| 20260508101906 | 92 | 71 | 3.0 | 10.0 | 0.00 | 0.00 | 0.00 | 53 | 1007.8 |
| 20260508101408 | 92 | 66 | 6.0 | 10.0 | 0.00 | 0.00 | 0.00 | 53 | 1007.8 |
| 20260508100906 | 92 | 59 | 5.0 | 8.0 | 0.00 | 0.00 | 0.00 | 53 | 1007.8 |
| 20260508100406 | 93 | 74 | 4.0 | 10.0 | 0.00 | 0.00 | 0.00 | 52 | 1007.8 |
| 20260508095906 | 93 | 54 | 3.0 | 6.0 | 0.00 | 0.00 | 0.00 | 52 | 1007.8 |
| 20260508095406 | 93 | 55 | 6.0 | 8.0 | 0.00 | 0.00 | 0.00 | 52 | 1007.8 |
| 20260508094906 | 94 | 46 | 3.0 | 8.0 | 0.00 | 0.00 | 0.00 | 51 | 1007.5 |
| 20260508094406 | 94 | 54 | 7.0 | 8.0 | 0.00 | 0.00 | 0.00 | 50 | 1007.5 |
| 20260508093906 | 94 | 71 | 8.0 | 9.0 | 0.00 | 0.00 | 0.00 | 50 | 1007.5 |
| 20260508093406 | 94 | 55 | 5.0 | 7.0 | 0.00 | 0.00 | 0.00 | 50 | 1007.5 |
| 20260508092906 | 95 | 57 | 6.0 | 10.0 | 0.00 | 0.00 | 0.00 | 49 | 1007.1 |
| 20260508092406 | 95 | 62 | 5.0 | 8.0 | 0.00 | 0.00 | 0.00 | 49 | 1007.1 |
| 20260508091907 | 95 | 69 | 3.0 | 9.0 | 0.00 | 0.00 | 0.00 | 48 | 1007.1 |